Regional Weather Roundup
Issued by NWS

Home | Current Version | Previous Version | Text Only | Print | Product List | Glossary On
Versions: 1 2 3 4 5 6 7 8 9 10 11 12 13 14 15 16 17 18 19 20 21 22 23 24 25 26 27
000
ASUS44 KLIX 211813
RWRLA
LOUISIANA WEATHER ROUNDUP
NATIONAL WEATHER SERVICE NEW ORLEANS LA
1200 PM CST TUE NOV 21 2017

NOTE: "FAIR" INDICATES FEW OR NO CLOUDS BELOW 12,000 FEET WITH NO
      SIGNIFICANT WEATHER AND/OR OBSTRUCTIONS TO VISIBILITY.
      SKY/WX - SKY CONDITION AND SIGNIFICANT WEATHER.
      TMP - AIR TEMPERATURE.    DP   - DEWPOINT TEMPERATURE.
      RH  - RELATIVE HUMIDITY.  PRES - PRESSURE.
      HX  - HEAT INDEX.         WCI  - WIND CHILL INDEX.

*  THESE STATIONS ARE NOT NWS OR FAA STATIONS AND ARE NOT UNDER
   NWS QUALITY CONTROL.

LAZ040-048-061>063-065-066-069-211900-
SOUTHEAST LOUISIANA

CITY           SKY/WX    TMP DP  RH WIND       PRES   REMARKS
N.O. INTL ARPT PTSUNNY   71  56  58 E3        29.99F
6HR MIN TEMP:  50; 6HR MAX TEMP:  72;

N.O. LAKEFRONT PTSUNNY   69  60  73 NE7       30.00F
6HR MIN TEMP:  54; 6HR MAX TEMP:  69;

N.O. DOWNTOWN* MOCLDY    70  58  65 VRB3      30.00F
6HR MIN TEMP:  56; 6HR MAX TEMP:  71;

RESERVE*       CLOUDY    72  53  52 E6        30.00F
6HR MIN TEMP:  49; 6HR MAX TEMP:  73;

SLIDELL        MOSUNNY   69  56  62 SE5       30.00F
6HR MIN TEMP:  46; 6HR MAX TEMP:  70;

BATON ROUGE    CLOUDY    60  52  74 NE6       30.00F
6HR MIN TEMP:  41; 6HR MAX TEMP:  60;

BOOTHVILLE     SUNNY     73  63  70 NE8       29.99F
6HR MIN TEMP:  62; 6HR MAX TEMP:  74;

BELLE CHASSE   MOSUNNY   71  59  65 E6        29.99F
6HR MIN TEMP:  47; 6HR MAX TEMP:  72;

BOGALUSA*      NOT AVBL
GALLIANO*      CLEAR     72  53  51 E7        29.98F
6HR MIN TEMP:  53; 6HR MAX TEMP:  72;

NEW ROADS*     CLOUDY    58  52  79 E3        30.00F
6HR MIN TEMP:  42; 6HR MAX TEMP:  58;

GONZALES*      CLOUDY    67  54  63 E5        29.99F
6HR MIN TEMP:  45; 6HR MAX TEMP:  67;

HAMMOND*       CLOUDY    64  54  68 CALM      30.01F
HOUMA*         PTSUNNY   72  55  56 SE7       29.98F
PORT FOURCHON* NOT AVBL

$$

LAZ041-044-053-054-211900-
SOUTHWEST LOUISIANA

CITY           SKY/WX    TMP DP  RH WIND       PRES   REMARKS
LAKE CHARLES   CLOUDY    65  57  75 SE13      29.93F
6HR MIN TEMP:  53; 6HR MAX TEMP:  65;

LAFAYETTE      CLOUDY    64  54  69 E5        29.98F
6HR MIN TEMP:  50; 6HR MAX TEMP:  64;

PATTERSON      CLOUDY    70  57  63 SE9       29.98F
6HR MIN TEMP:  51; 6HR MAX TEMP:  70;

SALT POINT       N/A      1  52 100 SE12G17   29.95F WCI -16
6HR MIN TEMP:   1; 6HR MAX TEMP:   1;

NEW IBERIA     CLOUDY    67  53  61 E8        29.98F
6HR MIN TEMP:  51; 6HR MAX TEMP:  67;

CHENAULT AIRPK PTSUNNY   66  57  72 E14G23    29.94F

$$

LAZ027-028-211900-
CENTRAL LOUISIANA

CITY           SKY/WX    TMP DP  RH WIND       PRES   REMARKS
FORT POLK      LGT RAIN  54  51  89 CALM      29.98S FOG
6HR MIN TEMP:  42; 6HR MAX TEMP:  55; 6HR PCP:  0.01;

ALEXANDRIA INT CLOUDY    58  47  66 SE7       29.98F
6HR MIN TEMP:  38; 6HR MAX TEMP:  58;

ALEXANDRIA     CLOUDY    58  49  72 E3        29.99F
6HR MIN TEMP:  32; 6HR MAX TEMP:  58;


$$

LAZ001-002-211900-
NORTHWEST LOUISIANA

CITY           SKY/WX    TMP DP  RH WIND       PRES   REMARKS
SHREVEPORT     CLOUDY    60  44  55 SE9       29.98F
6HR MIN TEMP:  40; 6HR MAX TEMP:  60;

BARKSDALE AFB  CLOUDY    59  42  52 S9        29.98F
6HR MIN TEMP:  38; 6HR MAX TEMP:  61;

DTN SHREVEPORT CLOUDY    59  43  55 SE7       29.99S
6HR MIN TEMP:  43; 6HR MAX TEMP:  59;


$$

LAZ014-016-211900-
NORTHEAST LOUISIANA

CITY           SKY/WX    TMP DP  RH WIND       PRES   REMARKS
MONROE         MOSUNNY   62  44  51 SW3       30.02F
6HR MIN TEMP:  33; 6HR MAX TEMP:  62;

TALLULAH       CLOUDY    59  46  62 VRB3      30.03F
6HR MIN TEMP:  33; 6HR MAX TEMP:  59;


$$





USA.gov is the U.S. government's official web portal to all federal, state and local government web resources and services.